Skip Page Navigation
NASA JPL Caltech
NASA Logo - Jet Propulsion Laboratory + View the NASA Portal
+ Center for Near-Earth Object Studies
JPL Home Earth Solar System Stars & Galaxies Technology
JPL Solar System Dynamics
BODIES ORBITS EPHEMERIDES TOOLS PHYSICAL DATA DISCOVERY FAQ SITE MAP
JPL Small-Body Database Browser
Search: [ help ]  
226336 (2003 FX47)
Classification: Main-belt Asteroid          SPK-ID: 2226336
Ephemeris | Orbit Diagram | Orbital Elements | Mission Design | Physical Parameters | Discovery Circumstances ]

[ show orbit diagram ]
Orbital Elements at Epoch 2459200.5 (2020-Dec-17.0) TDB
Reference: JPL 12 (heliocentric ecliptic J2000)
 Element Value Uncertainty (1-sigma)   Units 
e .1609093637113105 1.3851e-07  
a 2.568672519137218 2.494e-08 au
q 2.155349058500119 3.7193e-07 au
i 7.865975942034755 7.4935e-06 deg
node 3.300918998114866 4.7204e-05 deg
peri 113.2413302127584 6.8215e-05 deg
M 167.930416838601 3.5549e-05 deg
tp 2458499.063435123549
(2019-Jan-15.56343512)
0.00015548 TDB
period 1503.70116450207
4.12
2.19e-05
5.996e-08
d
yr
n .2394092712691414 3.4868e-09 deg/d
Q 2.981995979774317 2.8953e-08 au
  Orbit Determination Parameters
   # obs. used (total)      397  
   data-arc span      5853 days (16.02 yr)  
   first obs. used      2003-03-24  
   last obs. used      2019-04-02  
   planetary ephem.      DE441  
   SB-pert. ephem.      SB441-N16  
   condition code      0  
   norm. resid. RMS      .53256  
   source      ORB  
   producer      Otto Matic  
   solution date      2021-Apr-14 00:35:24  

Additional Information
 Earth MOID = 1.18533 au 
 Jupiter MOID = 2.12917 au 
 T_jup = 3.400 
[ show covariance matrix ]

Ephemeris | Orbit Diagram | Orbital Elements | Mission Design | Physical Parameters | Discovery Circumstances ]

Physical Parameter Table
Parameter Symbol Value Units Sigma Reference Notes
absolute magnitude H 16.7   n/a MPO418208  

226336 (2003 FX47)          Discovered 2003-Mar-24 by Spacewatch at Kitt Peak
Reference: 20091202/Numbers.arcLast Updated: 2009-12-04

Alternate Designations
 2003 FX47 = 2005 TQ112 
Ephemeris | Orbit Diagram | Orbital Elements | Mission Design | Physical Parameters | Discovery Circumstances ]
ABOUT SSD CREDITS/AWARDS PRIVACY/COPYRIGHT GLOSSARY LINKS
FirstGov 2021-Jun-15 02:03 UT
(server date/time)  
NASA Home Page
Site Manager:   Ryan S. Park
Webmaster  Alan B. Chamberlin